Weerstation Grootegast  Weerstation Grootegast


15 daagse weersverwachting 0.000N 0.000E

  • Overzicht
  • Per uur
  • 15 dagen
  • Extra
  • Vergelijk
  • Kaarten
  • Dagkaart
  • Meer »
  • Info
  • Statistieken
  • Directe link
    Temp 6h Neerslag Wind  
 02:49     18:14    Daglengte: 15:25 Morgen
00:00
16°
 
3
06:00
17°
 
3
12:00
19°
 
4
18:00
18°
 
3
 02:52     18:11    Daglengte: 15:19 Maandag 19 Aug
00:00
17°
1.4 mm
4
06:00
17°
16.5 mm
5
12:00
20°
 
5
18:00
15°
 
3
 02:54     18:08    Daglengte: 15:14 Dinsdag 20 Aug
00:00
14°
 
3
06:00
17°
3.8 mm
4
12:00
19°
3.8 mm
6
18:00
16°
11.8 mm
3
Locatie info
Region:
Latitude: 60.4202°N
Longitude: 23.2372°E
0 masl
Temp/Neerslag /Baro Onweer/Dauwpunt
    Temp Baro 1h Neerslag Dauwpunt Wind UV Bewolking  
 02:47     18:17    Daglengte: 15:30 Vandaag
22:00
16°
1012.0 hPa   13.9°
2
Windvlaag: 4.6 m/s
71%
23:00
16°
1012.1 hPa
18%
13.6°
2
Windvlaag: 5.1 m/s
76%
 02:49     18:14    Daglengte: 15:25 Morgen
00:00
16°
1011.7 hPa
20%
14.0°
3
Windvlaag: 5.3 m/s
68%
01:00
15°
1011.5 hPa   13.8°
2
Windvlaag: 5.2 m/s
51%
02:00
15°
1011.4 hPa   13.7°
2
Windvlaag: 4.9 m/s
59%
03:00
15°
1011.2 hPa   13.6°
2
Windvlaag: 4.6 m/s
55%
04:00
15°
1011.1 hPa   13.7°
2
Windvlaag: 4.6 m/s
59%
05:00
16°
1011.0 hPa   13.7°
2
Windvlaag: 4.6 m/s
84%
06:00
17°
1010.9 hPa
21%
13.8°
3
Windvlaag: 5.4 m/s
90%
07:00
17°
1010.8 hPa
71%
13.7°
3
Windvlaag: 6.7 m/s
90%
08:00
17°
1010.7 hPa
71%
13.4°
3
Windvlaag: 6.3 m/s
80%
09:00
18°
1010.7 hPa
70%
13.2°
4
Windvlaag: 8 m/s
40%
10:00
19°
1010.7 hPa
61%
13.7°
4
Windvlaag: 8.3 m/s
59%
11:00
19°
1010.5 hPa
16%
12.3°
4
Windvlaag: 8.6 m/s
31%
12:00
19°
1010.3 hPa
14%
11.8°
4
Windvlaag: 8.5 m/s
54%
13:00
20°
1009.9 hPa
22%
12.1°
4
Windvlaag: 8.2 m/s
58%
14:00
20°
1009.6 hPa
24%
11.5°
4
Windvlaag: 8.3 m/s
82%
15:00
20°
1009.3 hPa
19%
12.1°
4
Windvlaag: 7.9 m/s
87%
16:00
19°
1008.9 hPa
14%
12.4°
3
Windvlaag: 6.3 m/s
90%
17:00
19°
1008.6 hPa
72%
11.5°
3
Windvlaag: 6.3 m/s
90%
18:00
18°
1008.2 hPa
73%
11.0°
3
Windvlaag: 5.7 m/s
90%
19:00
18°
1007.7 hPa
25%
11.4°
3
Windvlaag: 5.3 m/s
90%
20:00
18°
1007.2 hPa
70%
12.1°
4
Windvlaag: 6.6 m/s
91%
21:00
18°
1006.8 hPa
81%
12.3°
4
Windvlaag: 6.9 m/s
91%
22:00
18°
1006.5 hPa
82%
12.8°
3
Windvlaag: 6.5 m/s
88%
23:00
18°
1006.2 hPa
80%
13.5°
4
Windvlaag: 7.2 m/s
91%
 02:52     18:11    Daglengte: 15:19 Maandag 19 Aug
00:00
17°
1005.8 hPa 1.4 mm
80%
13.9°
4
Windvlaag: 7.4 m/s
91%
01:00
17°
1005.1 hPa 1.9 mm
82%
14.7°
4
Windvlaag: 6.7 m/s
91%
02:00
17°
1004.5 hPa 3.1 mm
82%
15.6°
4
Windvlaag: 7.8 m/s
91%
03:00
16°
1004.0 hPa 3.8 mm
82%
15.7°
5
Windvlaag: 9.2 m/s
91%
04:00
16°
1003.7 hPa 3.4 mm
82%
15.6°
5
Windvlaag: 9.9 m/s
90%
05:00
17°
1003.7 hPa 4.4 mm
82%
15.7°
5
Windvlaag: 9.8 m/s
84%
06:00
17°
1004.1 hPa
24%
16.1°
5
Windvlaag: 9.2 m/s
71%
07:00
17°
1004.6 hPa
63%
16.2°
4
Windvlaag: 8 m/s
71%
08:00
18°
1005.5 hPa
58%
16.1°
4
Windvlaag: 7.8 m/s
33%
09:00
18°
1006.1 hPa
14%
15.5°
5
Windvlaag: 7.4 m/s
36%
10:00
19°
1006.6 hPa
16%
14.8°
5
Windvlaag: 7.6 m/s
10%
11:00
20°
1007.4 hPa
14%
14.8°
6
Windvlaag: 8.9 m/s
8%
12:00
20°
1008.1 hPa
14%
13.9°
5
Windvlaag: 9 m/s
3%
13:00
19°
1008.7 hPa
14%
13.6°
6
Windvlaag: 9.2 m/s
8%
14:00
19°
1009.4 hPa
14%
13.0°
6
Windvlaag: 9.5 m/s
10%
15:00
18°
1010.3 hPa
21%
12.5°
6
Windvlaag: 9.3 m/s
24%
16:00
17°
1010.7 hPa
21%
12.5°
5
Windvlaag: 9 m/s
21%
17:00
17°
1011.3 hPa
21%
12.4°
4
Windvlaag: 7.8 m/s
10%
18:00
15°
1011.7 hPa
21%
12.4°
3
Windvlaag: 6.2 m/s
3%
19:00
15°
1012.1 hPa
21%
12.5°
3
Windvlaag: 5.2 m/s
5%
20:00
14°
1012.6 hPa
21%
12.9°
3
Windvlaag: 5.2 m/s
1%
21:00
14°
1012.9 hPa
21%
13.3°
3
Windvlaag: 5.3 m/s
0%
22:00
14°
1013.1 hPa
21%
13.3°
3
Windvlaag: 5.3 m/s
3%
23:00
14°
1013.3 hPa
21%
13.7°
3
Windvlaag: 5 m/s
3%
 02:54     18:08    Daglengte: 15:14 Dinsdag 20 Aug
00:00
14°
1013.6 hPa
21%
13.8°
3
Windvlaag: 5.3 m/s
1%
01:00
14°
1013.8 hPa
21%
13.7°
3
Windvlaag: 5.3 m/s
3%
02:00
15°
1013.9 hPa
21%
14.0°
3
Windvlaag: 5.3 m/s
13%
03:00
15°
1014.1 hPa
21%
14.2°
3
Windvlaag: 5.2 m/s
26%
04:00
15°
1014.3 hPa
24%
14.8°
3
Windvlaag: 5.5 m/s
39%
05:00
16°
1014.7 hPa
86%
15.1°
4
Windvlaag: 6.6 m/s
44%
06:00
17°
1015.1 hPa 3.8 mm
100%
14.9°
4
Windvlaag: 7.8 m/s
58%
07:00
18°
1015.5 hPa 3.8 mm
100%
14.4°
4
Windvlaag: 7.8 m/s
57%
08:00
19°
1015.8 hPa
79%
13.6°
5
Windvlaag: 8.5 m/s
21%
09:00
19°
1016.2 hPa
21%
12.4°
6
Windvlaag: 9.7 m/s
15%
10:00
19°
1016.6 hPa
21%
12.1°
6
Windvlaag: 9.8 m/s
21%
11:00
19°
1016.9 hPa
21%
12.2°
6
Windvlaag: 10.2 m/s
23%
12:00
19°
1017.2 hPa
21%
11.6°
6
Windvlaag: 10.2 m/s
37%
13:00
19°
1017.5 hPa 5.9 mm
21%
12.4°
6
Windvlaag: 1.4 m/s
13%
14:00
19°
1017.8 hPa 5.9 mm
21%
12.3°
6
Windvlaag: 1.4 m/s
27%
15:00
18°
1017.9 hPa
21%
12.1°
5
Windvlaag: 1.4 m/s
61%
16:00
18°
1018.0 hPa
21%
12.3°
5
Windvlaag: 1.4 m/s
48%
17:00
17°
1018.1 hPa
21%
12.6°
4
Windvlaag: 1.2 m/s
47%
18:00
16°
1018.5 hPa
21%
13.1°
3
Windvlaag: 1.3 m/s
33%
19:00
15°
1018.7 hPa 17.5 mm
100%
13.2°
3
Windvlaag: 10.3 m/s
48%
20:00
15°
1018.8 hPa 17.5 mm
100%
13.3°
3
Windvlaag: 9.5 m/s
39%
21:00
15°
1019.0 hPa 17.5 mm
100%
13.2°
3
Windvlaag: 9.3 m/s
29%
Temp/Neerslag /Baro Onweer/Dauwpunt
    Temp Baro Neerslag Dauwpunt Wind Bewolking  
 02:49     18:14    Daglengte: 15:25 Morgen
00:00
16°
1011.7 hPa   14.0°
3
68%
03:00
15°
1011.2 hPa   13.6°
2
55%
06:00
17°
1010.9 hPa   13.8°
3
90%
09:00
18°
1010.7 hPa   13.2°
4
40%
12:00
19°
1010.3 hPa   11.8°
4
54%
15:00
20°
1009.3 hPa   12.1°
4
87%
18:00
18°
1008.2 hPa   11.0°
3
90%
21:00
18°
1006.8 hPa   12.3°
4
91%
 02:52     18:11    Daglengte: 15:19 Maandag 19 Aug
00:00
17°
1005.8 hPa 1.4 mm 13.9°
4
91%
03:00
16°
1004.0 hPa 8.7 mm 15.7°
5
91%
06:00
17°
1004.1 hPa 7.8 mm 16.1°
5
71%
09:00
18°
1006.1 hPa   15.5°
5
36%
12:00
20°
1008.1 hPa   13.9°
5
3%
15:00
18°
1010.3 hPa   12.5°
6
24%
18:00
15°
1011.7 hPa   12.4°
3
3%
21:00
14°
1012.9 hPa   13.3°
3
0%
 02:54     18:08    Daglengte: 15:14 Dinsdag 20 Aug
00:00
14°
1013.6 hPa   13.8°
3
1%
03:00
15°
1014.1 hPa   14.2°
3
26%
06:00
17°
1015.1 hPa 3.8 mm 14.9°
4
58%
09:00
19°
1016.2 hPa 3.8 mm 12.4°
6
15%
12:00
19°
1017.2 hPa   11.6°
6
37%
15:00
18°
1017.9 hPa 11.8 mm 12.1°
5
61%
18:00
16°
1018.5 hPa   13.1°
3
33%
21:00
15°
1019.0 hPa 52.6 mm 13.2°
3
29%
 02:57     18:05    Daglengte: 15:08 Woensdag 21 Aug
00:00
14°
1019.4 hPa 52.8 mm 13.4°
3
5%
03:00
16°
1019.6 hPa 19.5 mm 14.6°
3
12%
06:00
18°
1019.7 hPa 20.8 mm 15.3°
3
17%
09:00
19°
1019.9 hPa 23.0 mm 13.5°
4
18%
12:00
20°
1020.2 hPa 23.6 mm 10.8°
4
19%
15:00
17°
1020.6 hPa 23.7 mm 12.0°
3
16%
18:00
15°
1021.0 hPa 23.7 mm 12.5°
2
14%
21:00
14°
1021.5 hPa 23.7 mm 12.3°
2
12%
 02:59     18:02    Daglengte: 15:03 Donderdag 22 Aug
00:00
13°
1022.0 hPa 23.7 mm 12.0°
2
11%
03:00
14°
1022.5 hPa 23.7 mm 12.4°
2
20%
06:00
16°
1023.0 hPa 23.7 mm 12.9°
2
30%
09:00
18°
1023.3 hPa 23.8 mm 12.0°
3
32%
12:00
20°
1023.4 hPa 23.9 mm 10.2°
3
34%
15:00
18°
1023.5 hPa 23.9 mm 11.4°
3
17%
18:00
15°
1023.6 hPa 23.9 mm 11.7°
3
0%
21:00
14°
1023.5 hPa 23.9 mm 11.8°
3
46%
 03:01     17:59    Daglengte: 14:58 Vrijdag 23 Aug
00:00
13°
1023.4 hPa 23.9 mm 12.2°
3
92%
03:00
14°
1022.5 hPa 23.9 mm 13.2°
3
91%
06:00
15°
1021.7 hPa 23.9 mm 14.2°
3
91%
09:00
15°
1020.6 hPa 24.8 mm 14.3°
4
91%
12:00
15°
1019.5 hPa 26.5 mm 14.2°
4
92%
15:00
15°
1017.2 hPa 27.1 mm 14.4°
3
67%
18:00
15°
1015.0 hPa 27.1 mm 14.3°
2
42%
21:00
14°
1015.9 hPa 27.1 mm 13.6°
3
31%
 03:04     17:56    Daglengte: 14:52 Zaterdag 24 Aug
00:00
13°
1016.8 hPa 27.1 mm 13.0°
3
21%
03:00
14°
1018.3 hPa 27.1 mm 12.9°
3
14%
06:00
15°
1019.9 hPa 27.1 mm 13.0°
3
6%
09:00
18°
1021.0 hPa 27.1 mm 12.1°
4
43%
12:00
20°
1022.1 hPa 27.1 mm 9.8°
5
79%
15:00
18°
1023.2 hPa 27.1 mm 10.8°
4
57%
18:00
15°
1024.4 hPa 27.1 mm 11.1°
3
35%
21:00
13°
1025.5 hPa   10.7°
3
18%
 03:06     17:53    Daglengte: 14:47 Zondag 25 Aug
00:00
11°
1026.7 hPa 54.2 mm 10.3°
2
0%
06:00
15°
1028.1 hPa 54.2 mm 11.6°
1
5%
12:00
20°
1028.1 hPa 54.2 mm 10.9°
2
87%
18:00
15°
1027.5 hPa 54.2 mm 12.0°
1
38%
 03:09     17:50    Daglengte: 14:41 Maandag 26 Aug
00:00
12°
1028.1 hPa 54.2 mm 11.0°
1
49%
06:00
16°
1027.1 hPa 54.2 mm 12.4°
3
15%
12:00
21°
1025.8 hPa 54.2 mm 11.5°
4
56%
18:00
16°
1023.7 hPa 54.2 mm 12.9°
3
65%
 03:11     17:47    Daglengte: 14:36 Dinsdag 27 Aug
00:00
16°
1022.5 hPa 54.2 mm 12.7°
3
90%
06:00
18°
1021.3 hPa 54.2 mm 14.8°
2
73%
12:00
21°
1021.0 hPa 54.3 mm 15.4°
3
77%
18:00
15°
1013.3 hPa 1.2 mm 11.5°
2
47%
 03:14     17:44    Daglengte: 14:30 Woensdag 28 Aug
00:00
13°
1013.5 hPa 0.2 mm 10.9°
2
40%
06:00
15°
1013.7 hPa   11.1°
2
36%
12:00
18°
1014.0 hPa 0.2 mm 10.8°
3
39%
18:00
15°
1013.8 hPa 0.3 mm 11.2°
2
45%
 03:16     17:41    Daglengte: 14:25 Donderdag 29 Aug
00:00
13°
1013.5 hPa 0.6 mm 10.6°
2
38%
06:00
14°
1013.2 hPa 0.2 mm 10.7°
2
35%
12:00
18°
1013.1 hPa 0.6 mm 10.5°
3
41%
18:00
14°
1012.9 hPa 0.6 mm 10.2°
2
45%
 03:18     17:38    Daglengte: 14:20 Vrijdag 30 Aug
00:00
11°
1013.4 hPa 0.2 mm 9.3°
1
24%
06:00
13°
1013.6 hPa 0.3 mm 9.7°
1
33%
12:00
17°
1014.0 hPa 0.5 mm 9.3°
2
37%
18:00
13°
1013.5 hPa 0.9 mm 8.9°
1
39%
 03:21     17:35    Daglengte: 14:14 Zaterdag 31 Aug
00:00
11°
1013.5 hPa 0.4 mm 8.3°
1
27%
06:00
13°
1013.0 hPa 0.3 mm 9.4°
1
32%
12:00
17°
1013.0 hPa 0.6 mm 9.0°
2
39%
18:00
13°
1012.6 hPa 0.6 mm 9.1°
1
44%
 03:23     17:32    Daglengte: 14:09 Zondag 01 Sep
00:00
11°
1012.2 hPa 0.4 mm 9.0°
1
31%
06:00
13°
1011.2 hPa 0.2 mm 10.6°
1
42%
12:00
17°
1010.7 hPa 0.4 mm 10.9°
3
55%
18:00
14°
1010.2 hPa 0.7 mm 10.7°
2
47%
  CAPE Lifted Index Hail Supercell Tornado SRH 3km CL BTM PRES CL TOP PRES Swiss DWD icon SMHI TS
 02:47     18:17    Daglengte: 15:30 Vandaag
22:00 9 J/kg 2.6 K 0 % 0 % 0 % 0 m²/s² 0 0 3.83 3
23:00 88 J/kg 2.5 K 0 % 0 % 0 % 0 m²/s² 0 0 3.67 3
 02:49     18:14    Daglengte: 15:25 Morgen
00:00 110 J/kg 2.3 K 0 % 0 % 0 % 0 m²/s² 0 0 3.92 61
01:00 81 J/kg 2.5 K 0 % 0 % 0 % 0 m²/s² 0 0 4.66 3
02:00 68 J/kg 2.8 K 0 % 0 % 0 % 0 m²/s² 0 0 6.49 3
03:00 36 J/kg 2.8 K 0 % 0 % 0 % 0 m²/s² 0 0 7.12 3
04:00 0 J/kg 1.7 K 0 % 0 % 0 % 0 m²/s² 0 0 4.61 3
05:00 28 J/kg 1.0 K 0 % 0 % 0 % 0 m²/s² 0 0 1.93 3
06:00 117 J/kg 0.9 K 0 % 0 % 0 % 0 m²/s² 0 0 1.02 3
07:00 186 J/kg 0.1 K 0 % 0 % 0 % 0 m²/s² 0 0 0.19 61
08:00 194 J/kg -0.3 K 0 % 0 % 0 % 0 m²/s² 0 0 0 61
09:00 319 J/kg -1.0 K 0 % 0 % 0 % 0 m²/s² 0 0 -0.91 61
10:00 393 J/kg -1.2 K 0 % 0 % 0 % 0 m²/s² 0 0 -1.11 3
11:00 352 J/kg -1.2 K 0 % 0 % 0 % 0 m²/s² 0 0 -0.54 3
12:00 333 J/kg -1.6 K 0 % 0 % 0 % 0 m²/s² 0 0 -0.91 3
13:00 297 J/kg -1.5 K 0 % 0 % 0 % 0 m²/s² 0 0 -1.38 3
14:00 200 J/kg -1.0 K 0 % 0 % 0 % 0 m²/s² 0 0 0.23 3
15:00 117 J/kg 0.3 K 0 % 0 % 0 % 0 m²/s² 0 0 1.17 3
16:00 112 J/kg 0.1 K 0 % 0 % 0 % 0 m²/s² 0 0 2.23 3
17:00 72 J/kg 0.6 K 0 % 0 % 0 % 0 m²/s² 0 0 2.16 3
18:00 45 J/kg 0.8 K 0 % 0 % 0 % 0 m²/s² 0 0 0.92 3
19:00 0 J/kg 1.1 K 0 % 0 % 0 % 0 m²/s² 0 0 1.28 3
20:00 0 J/kg 1.1 K 0 % 0 % 0 % 0 m²/s² 0 0 1.19 3
21:00 0 J/kg 0.9 K 0 % 0 % 0 % 0 m²/s² 0 0 0.99 3
22:00 0 J/kg 1.5 K 0 % 0 % 0 % 0 m²/s² 0 0 1.5 61
23:00 0 J/kg 1.6 K 0 % 0 % 0 % 0 m²/s² 0 0 1.6 3
 02:52     18:11    Daglengte: 15:19 Maandag 19 Aug
00:00 0 J/kg 1.0 K 0 % 0 % 0 % 0 m²/s² 0 0 1 3
01:00 0 J/kg 0.7 K 0 % 0 % 0 % 0 m²/s² 0 0 0.7 61
02:00 6 J/kg 0.7 K 0 % 0 % 0 % 0 m²/s² 0 0 0.7 61
03:00 20 J/kg 0.4 K 0 % 0 % 0 % 0 m²/s² 0 0 0.4 61
04:00 2 J/kg 0.3 K 0 % 0 % 0 % 0 m²/s² 0 0 0.96 55
05:00 80 J/kg -0.1 K 0 % 0 % 0 % 0 m²/s² 0 0 3.5 3
06:00 243 J/kg -1.1 K 0 % 0 % 0 % 0 m²/s² 0 0 4.33 2
07:00 26 J/kg 0.9 K 0 % 0 % 0 % 0 m²/s² 0 0 7.71 3
08:00 29 J/kg 1.1 K 0 % 0 % 0 % 0 m²/s² 0 0 8.36 2
09:00 28 J/kg 1.1 K 0 % 0 % 0 % 0 m²/s² 0 0 10.16 2
10:00 24 J/kg 1.0 K 0 % 0 % 0 % 0 m²/s² 0 0 10.87 2
11:00 35 J/kg 1.0 K 0 % 0 % 0 % 0 m²/s² 0 0 10.39 1
12:00 15 J/kg 1.8 K 0 % 0 % 0 % 0 m²/s² 0 0 10.41 2
13:00 1 J/kg 2.3 K 0 % 0 % 0 % 0 m²/s² 0 0 9.23 3
14:00 0 J/kg 2.9 K 0 % 0 % 0 % 0 m²/s² 0 0 9.17 3
15:00 0 J/kg 3.2 K 0 % 0 % 0 % 0 m²/s² 0 0 9.11 3
16:00 0 J/kg 2.6 K 0 % 0 % 0 % 0 m²/s² 0 0 8.06 3
17:00 0 J/kg 1.4 K 0 % 0 % 0 % 0 m²/s² 0 0 6.56 3
18:00 22 J/kg -0.1 K 0 % 0 % 0 % 0 m²/s² 0 0 5.33 3
19:00 130 J/kg -0.8 K 0 % 0 % 0 % 0 m²/s² 0 0 5.62 3
20:00 50 J/kg -0.4 K 0 % 0 % 0 % 0 m²/s² 0 0 5.03 2
21:00 113 J/kg -0.8 K 0 % 0 % 0 % 0 m²/s² 0 0 3.7 2
22:00 350 J/kg -2.4 K 0 % 0 % 0 % 0 m²/s² 0 0 1.26 2
23:00 512 J/kg -3.5 K 0 % 0 % 0 % 0 m²/s² 0 0 -0.05 2
 02:54     18:08    Daglengte: 15:14 Dinsdag 20 Aug
00:00 741 J/kg -3.6 K 0 % 0 % 0 % 0 m²/s² 0 0 -1.53 2
01:00 831 J/kg -3.7 K 0 % 0 % 0 % 0 m²/s² 0 0 -1.63 2
02:00 639 J/kg -2.7 K 0 % 0 % 0 % 0 m²/s² 0 0 0.33 2
03:00 578 J/kg -2.6 K 0 % 0 % 0 % 0 m²/s² 0 0 0.52 2
04:00 463 J/kg -2.1 K 0 % 0 % 0 % 0 m²/s² 0 0 0.54 3
05:00 538 J/kg -2.5 K 0 % 0 % 0 % 0 m²/s² 0 0 -0.22 3
06:00 531 J/kg -2.4 K 0 % 0 % 0 % 0 m²/s² 0 0 -0.06 2
07:00 285 J/kg -1.4 K 0 % 0 % 0 % 0 m²/s² 0 0 1.15 2
08:00 318 J/kg -1.5 K 0 % 0 % 0 % 0 m²/s² 0 0 1.77 2
09:00 293 J/kg -1.3 K 0 % 0 % 0 % 0 m²/s² 0 0 2.6 1
10:00 387 J/kg -1.5 K 0 % 0 % 0 % 0 m²/s² 0 0 2.94 2
11:00 337 J/kg -1.1 K 0 % 0 % 0 % 0 m²/s² 0 0 3.01 2
12:00 45 J/kg 0.4 K 0 % 0 % 0 % 0 m²/s² 0 0 4.51 2
13:00 59 J/kg 0.1 K 0 % 0 % 0 % 0 m²/s² 0 0 4.3 2
14:00 32 J/kg 0.1 K 0 % 0 % 0 % 0 m²/s² 0 0 4.54 2
15:00 14 J/kg 0.1 K 0 % 0 % 0 % 0 m²/s² 0 0 4.3 3
16:00 90 J/kg -0.5 K 0 % 0 % 0 % 0 m²/s² 0 0 3.31 1
17:00 126 J/kg -0.8 K 0 % 0 % 0 % 0 m²/s² 0 0 2.62 1
18:00 163 J/kg -1.0 K 0 % 0 % 0 % 0 m²/s² 0 0 2.24 1
19:00 350 J/kg -1.9 K 0 % 0 % 0 % 0 m²/s² 0 0 0.56
20:00 561 J/kg -2.4 K 0 % 0 % 0 % 0 m²/s² 0 0 -0.33
21:00 566 J/kg -2.3 K 0 % 0 % 0 % 0 m²/s² 0 0 -0.17
Temp Baro Wind Neerslag
  EWN Forecast EWN WRFDA DWD ICON FMI HIRLAM MET Norway GFS
 02:49     18:14    Daglengte: 15:25 Morgen
00:00 15.6° 1011.7 hPa 2.5 m/s 0.0 mm 14.7° 1010.9 hPa 3.2 m/s 0.0 mm 16.2° 1011.7 hPa 1.8 m/s -1.7 mm 15.0° 1012.0 hPa 2.0 m/s 0.0 mm 15.8° 1011.9 hPa 2.8 m/s 0.0 mm 15.2° 1011.4 hPa 2.9 m/s
03:00 15.1° 1011.2 hPa 2.3 m/s 0.0 mm 14.2° 1010.2 hPa 3.3 m/s 0.0 mm 15.2° 1011.3 hPa 2.1 m/s 0.0 mm 14.8° 1011.4 hPa 2.3 m/s 0.0 mm 15.5° 1011.3 hPa 2.1 m/s 0.0 mm 13.8° 1011.0 hPa 2.2 m/s
06:00 16.9° 1010.9 hPa 2.7 m/s 0.0 mm 17.1° 1009.8 hPa 3.1 m/s 0.0 mm 16.8° 1011.0 hPa 2.7 m/s 0.0 mm 16.9° 1011.0 hPa 2.7 m/s 0.0 mm 17.2° 1011.0 hPa 3.0 m/s 0.0 mm 16.7° 1010.4 hPa 3.0 m/s
09:00 17.9° 1010.7 hPa 4.0 m/s 0.0 mm 19.5° 1009.5 hPa 4.0 m/s 0.2 mm 17.6° 1010.8 hPa 4.2 m/s 0.4 mm 18.0° 1010.9 hPa 3.4 m/s 0.0 mm 17.8° 1010.7 hPa 4.4 m/s 0.0 mm 18.3° 1010.5 hPa 4.0 m/s
12:00 19.2° 1010.3 hPa 4.3 m/s 0.0 mm 20.2° 1008.8 hPa 5.2 m/s 1.6 mm 19.4° 1010.4 hPa 4.4 m/s 0.0 mm 18.7° 1010.7 hPa 3.6 m/s 0.0 mm 20.4° 1010.2 hPa 4.4 m/s 0.0 mm 17.7° 1009.8 hPa 3.0 m/s
15:00 20.2° 1009.3 hPa 3.6 m/s 0.0 mm 21.8° 1008.0 hPa 5.3 m/s 2.1 mm 19.7° 1009.0 hPa 3.8 m/s 0.0 mm 20.4° 1010.0 hPa 3.9 m/s 0.0 mm 20.7° 1009.5 hPa 3.1 m/s 0.0 mm 20.4° 1008.9 hPa 4.2 m/s
18:00 18.3° 1008.2 hPa 2.7 m/s 0.0 mm 19.7° 1006.2 hPa 4.0 m/s 2.1 mm 18.0° 1008.1 hPa 3.2 m/s 0.1 mm 19.6° 1008.9 hPa 3.5 m/s 0.0 mm 18.3° 1008.4 hPa 2.0 m/s 0.0 mm 17.0° 1007.3 hPa 3.4 m/s
21:00 18.2° 1006.8 hPa 3.8 m/s 0.0 mm 18.1° 1005.2 hPa 5.0 m/s 2.9 mm 17.7° 1006.1 hPa 4.3 m/s 0.0 mm 18.7° 1008.5 hPa 3.2 m/s 0.0 mm 18.5° 1007.1 hPa 3.3 m/s 0.0 mm 16.7° 1005.6 hPa 4.1 m/s
 02:52     18:11    Daglengte: 15:19 Maandag 19 Aug
00:00 17.3° 1005.8 hPa 3.7 m/s 1.4 mm 17.2° 1003.3 hPa 5.8 m/s 7.4 mm 17.2° 1003.9 hPa 5.0 m/s 0.1 mm 17.4° 1007.6 hPa 3.5 m/s 0.0 mm 18.3° 1006.1 hPa 3.0 m/s 0.0 mm 16.6° 1003.8 hPa 4.7 m/s
03:00 16.3° 1004.0 hPa 4.8 m/s 8.7 mm 17.4° 1001.1 hPa 6.1 m/s 37.5 mm 16.1° 1001.5 hPa 6.0 m/s 3.4 mm 16.4° 1006.8 hPa 2.7 m/s 0.0 mm 16.4° 1004.9 hPa 3.7 m/s 3.9 mm 17.0° 1002.5 hPa 5.5 m/s
06:00 17.0° 1004.1 hPa 4.7 m/s 7.8 mm 18.9° 1002.1 hPa 5.9 m/s 52.0 mm 17.7° 1002.7 hPa 5.4 m/s 1.4 mm 16.9° 1005.8 hPa 3.6 m/s 0.0 mm 16.6° 1005.0 hPa 3.5 m/s 1.1 mm 17.2° 1003.6 hPa 4.2 m/s
09:00 18.5° 1006.1 hPa 4.6 m/s 0.0 mm 19.1° 1004.2 hPa 4.7 m/s 52.6 mm 18.4° 1006.2 hPa 6.0 m/s 0.0 mm 17.8° 1005.7 hPa 3.9 m/s 0.0 mm 19.3° 1006.2 hPa 4.6 m/s 0.0 mm 18.4° 1005.6 hPa 4.7 m/s
12:00 19.5° 1008.1 hPa 5.5 m/s 0.0 mm 20.1° 1006.2 hPa 6.2 m/s 52.6 mm 19.4° 1008.8 hPa 5.9 m/s 0.0 mm 19.3° 1006.6 hPa 4.3 m/s 0.0 mm 20.3° 1008.3 hPa 5.6 m/s 0.0 mm 19.6° 1007.8 hPa 5.2 m/s
15:00 18.1° 1010.3 hPa 5.5 m/s 0.0 mm 18.6° 1007.8 hPa 6.2 m/s 52.6 mm 18.1° 1010.9 hPa 5.7 m/s 0.0 mm 18.0° 1010.5 hPa 5.6 m/s 0.0 mm 18.2° 1009.5 hPa 4.8 m/s
18:00 15.4° 1011.7 hPa 2.9 m/s 0.0 mm 15.0° 1008.9 hPa 2.7 m/s 52.6 mm 16.0° 1012.0 hPa 4.1 m/s 0.0 mm 15.3° 1012.2 hPa 2.5 m/s 0.0 mm 14.5° 1010.7 hPa 2.9 m/s
21:00 14.3° 1012.9 hPa 3.1 m/s 0.0 mm 14.3° 1009.6 hPa 3.6 m/s 52.6 mm 15.3° 1013.2 hPa 3.6 m/s 0.0 mm 13.4° 1013.3 hPa 2.1 m/s 0.0 mm 13.6° 1011.6 hPa 2.8 m/s
 02:54     18:08    Daglengte: 15:14 Dinsdag 20 Aug
00:00 14.3° 1013.6 hPa 2.9 m/s 0.0 mm 14.6° 1011.0 hPa 3.5 m/s 52.6 mm 15.1° 1013.8 hPa 3.4 m/s 0.0 mm 13.3° 1014.1 hPa 2.4 m/s 0.0 mm 14.1° 1012.8 hPa 2.8 m/s
03:00 14.5° 1014.1 hPa 3.0 m/s 0.0 mm 14.4° 1011.8 hPa 3.5 m/s 52.6 mm 15.5° 1014.2 hPa 3.3 m/s 0.0 mm 13.7° 1014.8 hPa 2.1 m/s 0.0 mm 13.7° 1013.2 hPa 2.5 m/s
06:00 17.2° 1015.1 hPa 4.0 m/s 3.8 mm 17.4° 1013.0 hPa 5.1 m/s 52.6 mm 17.1° 1015.2 hPa 4.2 m/s 0.1 mm 17.3° 1015.6 hPa 3.9 m/s 0.0 mm 17.2° 1014.2 hPa 4.0 m/s
09:00 19.1° 1016.2 hPa 5.6 m/s 3.8 mm 19.2° 1014.7 hPa 6.2 m/s 52.6 mm 19.3° 1016.2 hPa 5.6 m/s 0.2 mm 19.4° 1017.0 hPa 5.7 m/s 0.0 mm 18.9° 1015.8 hPa 5.3 m/s
12:00 19.3° 1017.2 hPa 6.2 m/s 0.0 mm 19.3° 1016.2 hPa 7.1 m/s 52.6 mm 19.9° 1016.9 hPa 6.1 m/s 0.0 mm 19.4° 1018.2 hPa 6.3 m/s 0.0 mm 18.9° 1017.0 hPa 5.6 m/s
15:00 18.5° 1017.9 hPa 5.1 m/s 11.8 mm 18.5° 1016.8 hPa 6.2 m/s 52.6 mm 18.2° 1017.7 hPa 4.7 m/s 0.0 mm 18.5° 1018.2 hPa 5.0 m/s 0.3 mm 17.8° 1017.6 hPa 5.0 m/s
18:00 15.7° 1018.5 hPa 3.2 m/s 0.0 mm 14.4° 1017.0 hPa 2.7 m/s 52.6 mm 15.9° 1018.5 hPa 3.4 m/s 0.0 mm 15.8° 1018.7 hPa 3.3 m/s 0.0 mm 14.2° 1018.4 hPa 2.8 m/s
21:00 14.6° 1019.0 hPa 3.0 m/s 52.6 mm 13.7° 1017.6 hPa 2.7 m/s 52.6 mm 14.8° 1019.2 hPa 3.1 m/s 13.3° 1019.1 hPa 2.9 m/s
 02:57     18:05    Daglengte: 15:08 Woensdag 21 Aug
00:00 14.0° 1019.4 hPa 3.0 m/s 52.8 mm 15.2° 1017.5 hPa 3.4 m/s 52.8 mm 13.8° 1019.7 hPa 2.9 m/s 13.5° 1019.1 hPa 2.3 m/s
03:00 16.2° 1019.6 hPa 2.7 m/s 19.5 mm 16.4° 1019.8 hPa 2.8 m/s 13.5° 1018.3 hPa 2.5 m/s 19.5 mm
06:00 17.6° 1019.7 hPa 2.7 m/s 20.8 mm 17.7° 1019.8 hPa 2.7 m/s 16.8° 1018.6 hPa 3.0 m/s 20.8 mm
09:00 18.6° 1019.9 hPa 3.5 m/s 23.0 mm 18.6° 1020.1 hPa 3.6 m/s 18.0° 1018.3 hPa 2.8 m/s 23.0 mm
12:00 19.5° 1020.2 hPa 4.4 m/s 23.6 mm 19.6° 1020.4 hPa 4.5 m/s 18.8° 1018.0 hPa 3.3 m/s 23.6 mm
15:00 17.4° 1020.6 hPa 3.5 m/s 23.7 mm 17.4° 1020.8 hPa 3.5 m/s 18.0° 1017.6 hPa 3.8 m/s 23.7 mm
18:00 15.0° 1021.0 hPa 2.4 m/s 23.7 mm 15.1° 1021.3 hPa 2.4 m/s 13.4° 1017.9 hPa 2.1 m/s 23.7 mm
21:00 13.7° 1021.5 hPa 2.1 m/s 23.7 mm 13.9° 1021.8 hPa 2.1 m/s 11.9° 1018.6 hPa 1.8 m/s 23.7 mm
 02:59     18:02    Daglengte: 15:03 Donderdag 22 Aug
00:00 12.6° 1022.0 hPa 1.8 m/s 23.7 mm 12.7° 1022.2 hPa 1.8 m/s 11.4° 1019.4 hPa 1.5 m/s 23.7 mm
03:00 14.1° 1022.5 hPa 1.9 m/s 23.7 mm 14.5° 1022.7 hPa 2.0 m/s 10.1° 1020.1 hPa 1.8 m/s 23.7 mm
06:00 16.2° 1023.0 hPa 2.1 m/s 23.7 mm 16.3° 1023.2 hPa 2.1 m/s 14.6° 1021.3 hPa 2.4 m/s 23.7 mm
09:00 18.4° 1023.3 hPa 2.8 m/s 23.8 mm 18.4° 1023.4 hPa 2.8 m/s 18.7° 1022.2 hPa 3.3 m/s 23.8 mm
12:00 20.3° 1023.4 hPa 3.4 m/s 23.9 mm 20.4° 1023.5 hPa 3.4 m/s 19.7° 1022.7 hPa 3.9 m/s 23.9 mm
15:00 17.6° 1023.5 hPa 3.0 m/s 23.9 mm 17.5° 1023.5 hPa 3.0 m/s 18.7° 1023.0 hPa 3.0 m/s 23.9 mm
18:00 14.5° 1023.6 hPa 2.7 m/s 23.9 mm 14.7° 1023.6 hPa 2.7 m/s 12.8° 1023.5 hPa 2.2 m/s 23.9 mm
21:00 13.6° 1023.5 hPa 2.6 m/s 23.9 mm 13.8° 1023.4 hPa 2.7 m/s 10.6° 1024.6 hPa 1.3 m/s 23.9 mm
 03:01     17:59    Daglengte: 14:58 Vrijdag 23 Aug
00:00 12.8° 1023.4 hPa 2.5 m/s 23.9 mm 13.0° 1023.2 hPa 2.7 m/s 10.7° 1025.3 hPa 0.8 m/s 23.9 mm
03:00 13.6° 1022.5 hPa 2.8 m/s 23.9 mm 13.8° 1022.2 hPa 2.9 m/s 10.9° 1025.5 hPa 1.5 m/s 23.9 mm
06:00 14.6° 1021.7 hPa 3.0 m/s 23.9 mm 14.6° 1021.3 hPa 3.1 m/s 15.0° 1026.2 hPa 2.1 m/s 23.9 mm
09:00 14.8° 1020.6 hPa 3.8 m/s 24.8 mm 14.6° 1020.0 hPa 3.8 m/s 18.0° 1027.0 hPa 2.7 m/s 24.8 mm
12:00 14.9° 1019.5 hPa 4.4 m/s 26.5 mm 14.5° 1018.8 hPa 4.6 m/s 19.3° 1027.3 hPa 2.1 m/s 26.5 mm
15:00 15.1° 1017.2 hPa 3.4 m/s 27.1 mm 14.7° 1016.3 hPa 3.5 m/s 19.5° 1027.3 hPa 2.2 m/s 27.1 mm
18:00 14.8° 1015.0 hPa 2.3 m/s 27.1 mm 14.9° 1013.8 hPa 2.4 m/s 13.8° 1027.9 hPa 1.4 m/s 27.1 mm
21:00 14.1° 1015.9 hPa 2.8 m/s 27.1 mm 14.2° 1014.8 hPa 3.0 m/s 11.9° 1028.6 hPa 0.9 m/s 27.1 mm
 03:04     17:56    Daglengte: 14:52 Zaterdag 24 Aug
00:00 13.4° 1016.8 hPa 3.4 m/s 27.1 mm 13.6° 1015.7 hPa 3.6 m/s 11.2° 1029.2 hPa 0.9 m/s 27.1 mm
03:00 13.8° 1018.3 hPa 3.3 m/s 27.1 mm 14.1° 1017.4 hPa 3.5 m/s 10.9° 1029.3 hPa 1.3 m/s 27.1 mm
06:00 14.7° 1019.9 hPa 3.2 m/s 27.1 mm 14.6° 1019.0 hPa 3.3 m/s 15.8° 1029.8 hPa 1.8 m/s 27.1 mm
09:00 17.6° 1021.0 hPa 4.1 m/s 27.1 mm 17.4° 1020.2 hPa 4.2 m/s 19.8° 1030.4 hPa 2.6 m/s 27.1 mm
12:00 20.2° 1022.1 hPa 5.0 m/s 27.1 mm 20.1° 1021.4 hPa 5.2 m/s 20.8° 1029.7 hPa 3.1 m/s 27.1 mm
15:00 17.6° 1023.2 hPa 4.0 m/s 27.1 mm 17.5° 1022.6 hPa 4.1 m/s 19.8° 1029.4 hPa 2.7 m/s 27.1 mm
18:00 14.8° 1024.4 hPa 2.9 m/s 27.1 mm 14.8° 1023.9 hPa 3.0 m/s 14.7° 1029.6 hPa 1.7 m/s 27.1 mm
21:00 12.9° 1025.5 hPa 2.6 m/s 27.1 mm 12.9° 1025.2 hPa 2.7 m/s 13.0° 1029.9 hPa 1.5 m/s 27.1 mm
 03:06     17:53    Daglengte: 14:47 Zondag 25 Aug
00:00 11.0° 1026.7 hPa 2.3 m/s 27.1 mm 10.9° 1026.4 hPa 2.4 m/s 12.5° 1029.8 hPa 1.3 m/s 27.1 mm
06:00 14.6° 1028.1 hPa 1.2 m/s 27.1 mm 14.5° 1028.0 hPa 1.1 m/s 16.3° 1029.4 hPa 1.9 m/s 27.1 mm
12:00 20.4° 1028.1 hPa 2.0 m/s 27.1 mm 20.3° 1028.1 hPa 2.0 m/s 21.7° 1028.0 hPa 2.4 m/s 27.1 mm
18:00 15.4° 1027.5 hPa 1.3 m/s 27.1 mm 15.4° 1027.6 hPa 1.3 m/s 15.3° 1026.1 hPa 1.7 m/s 27.1 mm
 03:09     17:50    Daglengte: 14:41 Maandag 26 Aug
00:00 11.5° 1028.1 hPa 1.4 m/s 27.1 mm 11.4° 1028.4 hPa 1.4 m/s 12.8° 1024.3 hPa 1.1 m/s 27.1 mm
06:00 16.1° 1027.1 hPa 2.9 m/s 27.1 mm 16.1° 1027.5 hPa 3.0 m/s 16.6° 1022.2 hPa 1.8 m/s 27.1 mm
12:00 21.4° 1025.8 hPa 4.1 m/s 27.1 mm 21.4° 1026.3 hPa 4.2 m/s 20.9° 1020.1 hPa 3.3 m/s 27.1 mm
18:00 16.3° 1023.7 hPa 2.9 m/s 27.1 mm 16.4° 1024.1 hPa 3.0 m/s 14.8° 1019.2 hPa 1.8 m/s 27.1 mm
 03:11     17:47    Daglengte: 14:36 Dinsdag 27 Aug
00:00 15.6° 1022.5 hPa 2.9 m/s 27.1 mm 15.9° 1022.8 hPa 2.9 m/s 12.4° 1019.7 hPa 3.0 m/s 27.1 mm
06:00 17.6° 1021.3 hPa 2.4 m/s 27.1 mm 17.9° 1021.4 hPa 2.4 m/s 14.1° 1020.6 hPa 2.2 m/s 27.1 mm
12:00 21.1° 1021.0 hPa 3.0 m/s 27.2 mm 21.3° 1021.0 hPa 3.0 m/s 19.0° 1021.3 hPa 3.1 m/s 27.2 mm
18:00 14.9° 1013.3 hPa 1.9 m/s 1.2 mm
 03:14     17:44    Daglengte: 14:30 Woensdag 28 Aug
00:00 13.0° 1013.5 hPa 1.7 m/s 0.2 mm
06:00 14.6° 1013.7 hPa 1.9 m/s 0.0 mm
12:00 18.4° 1014.0 hPa 3.0 m/s 0.2 mm
18:00 14.6° 1013.8 hPa 2.0 m/s 0.3 mm
 03:16     17:41    Daglengte: 14:25 Donderdag 29 Aug
00:00 12.7° 1013.5 hPa 1.8 m/s 0.6 mm
06:00 14.1° 1013.2 hPa 2.0 m/s 0.2 mm
12:00 17.6° 1013.1 hPa 2.8 m/s 0.6 mm
18:00 14.1° 1012.9 hPa 2.0 m/s 0.6 mm
 03:18     17:38    Daglengte: 14:20 Vrijdag 30 Aug
00:00 11.4° 1013.4 hPa 1.0 m/s 0.2 mm
06:00 13.1° 1013.6 hPa 1.1 m/s 0.3 mm
12:00 17.1° 1014.0 hPa 2.1 m/s 0.5 mm
18:00 13.4° 1013.5 hPa 1.3 m/s 0.9 mm
 03:21     17:35    Daglengte: 14:14 Zaterdag 31 Aug
00:00 11.1° 1013.5 hPa 0.6 m/s 0.4 mm
06:00 12.9° 1013.0 hPa 0.8 m/s 0.3 mm
12:00 16.7° 1013.0 hPa 2.1 m/s 0.6 mm
18:00 12.8° 1012.6 hPa 1.0 m/s 0.6 mm
 03:23     17:32    Daglengte: 14:09 Zondag 01 Sep
00:00 11.1° 1012.2 hPa 1.1 m/s 0.4 mm
06:00 13.1° 1011.2 hPa 1.5 m/s 0.2 mm
12:00 17.2° 1010.7 hPa 2.9 m/s 0.4 mm
18:00 13.6° 1010.2 hPa 1.8 m/s 0.7 mm
FMI Hirlam - 7.5 km EWN WRFDA - 12 km DWD ICON - 7 km GFS - 25 km Basiskaart






























































Updatetijd (Europe/Amsterdam) Resolutie Lengte Stap
FMI Hirlam 19:00, 01:00, 07:00, 13:00 7.5 km 49h 1h
EWN WRFDA 21:30, 03:30, 09:30, 15:30 12 km 73h 1h
DWD ICON 17:45, 23:45, 05:45, 11:45 7 km 75h 1h
GFS 20:30, 02:30, 08:30, 14:30 25 km 237h 3h
30+ mm
25-30 mm
20-25 mm
15-20 mm
10-15 mm
6-10 mm
4-6 mm
2-4 mm
1-2 mm
0.5-1 mm
0.2-0.5 mm
0.1-0.2 mm
30+ mm
25-30 mm
20-25 mm
15-20 mm
10-15 mm
6-10 mm
4-6 mm
2-4 mm
1-2 mm
0.5-1 mm
0.2-0.5 mm
0.1-0.2 mm
Sneeuwval
Natte sneeuw
Hagel
Vorst
30+ mm
25-30 mm
20-25 mm
15-20 mm
10-15 mm
6-10 mm
4-6 mm
2-4 mm
1-2 mm
0.5-1 mm
0.2-0.5 mm
0.1-0.2 mm
Sneeuwval
Natte sneeuw
Hagel
Vorst
Onweer
50 mm
40 mm
30 mm
26 mm
22 mm
18 mm
14 mm
10 mm
9 mm
8 mm
7 mm
6 mm
5 mm
4.5 mm
4 mm
3.5 mm
3 mm
2.5 mm
2 mm
1.5 mm
1 mm
0.8 mm
0.6 mm
0.4 mm
0.2 mm
0.05 mm
35°
30°
25°
20°
15°
10°
-5°
-10°
-15°
-20°
-25°
-30°
-35°
33> m/s
29 m/s
25 m/s
21 m/s
17 m/s
14 m/s
11 m/s
8 m/s
5 m/s
3 m/s
0 m/s
2600 J/kg
2400 J/kg
2200 J/kg
2000 J/kg
1800 J/kg
1600 J/kg
1400 J/kg
1200 J/kg
1000 J/kg
800 J/kg
600 J/kg
400 J/kg
200 J/kg
70 dBZ
65 dBZ
60 dBZ
55 dBZ
50 dBZ
45 dBZ
40 dBZ
35 dBZ
30 dBZ
25 dBZ
20 dBZ
15 dBZ
10 dBZ
5 dBZ
-1 K
-2 K
-3 K
-4 K
-5 K
-6 K
-7 K
-8 K
-9 K
950 m²/s²
900 m²/s²
850 m²/s²
800 m²/s²
750 m²/s²
700 m²/s²
650 m²/s²
600 m²/s²
550 m²/s²
500 m²/s²
450 m²/s²
400 m²/s²
350 m²/s²
300 m²/s²
250 m²/s²
200 m²/s²
150 m²/s²
100 m²/s²
46 m/s
44 m/s
42 m/s
40 m/s
38 m/s
36 m/s
34 m/s
32 m/s
30 m/s
28 m/s
26 m/s
24 m/s
22 m/s
20 m/s
16 m/s
12 m/s
8 m/s
4 m/s
30 m/s
28 m/s
26 m/s
24 m/s
22 m/s
20 m/s
18 m/s
16 m/s
14 m/s
12 m/s
10 m/s
8 m/s
6 m/s
4 m/s
2 m/s
3.0
2.8
2.6
2.4
2.2
2.0
1.8
1.6
1.4
1.2
1.0
0.8
0.6
0.4
0.2
15
14
13
12
11
10
9
8
7
6
5
4
3
2
1
90%
80%
70%
60%
50%
40%
30%
20%
10%
42
40
38
36
34
32
30
28
26
24
22
20
18
16
14
12
90+ cm
80-90 cm
70-80 cm
60-70 cm
50-60 cm
40-50 cm
30-40 cm
20-30 cm
10-20 cm
1-10 cm
Sneeuwval
Natte sneeuw
Regen
>120 mm
115 mm
110 mm
105 mm
100 mm
95 mm
90 mm
85 mm
80 mm
75 mm
70 mm
65 mm
60 mm
55 mm
50 mm
45 mm
45 mm
40 mm
35 mm
30 mm
25 mm
20 mm
15 mm
10 mm
5 mm
0.1 mm
960 hPa
880 hPa
800 hPa
720 hPa
640 hPa
560 hPa
584 gpdm
568 gpdm
552 gpdm
536 gpdm
520 gpdm
504 gpdm
488 gpdm
Extreem zwaar Noodweer Kans op onweer
15% 15% 5% 50% 15%

Dag




Kaart






35°
30°
25°
20°
15°
10°
-5°
-10°
-15°
-20°
-25°
-30°
-35°